OEY330 WIII-WAMM

Flight info

Callsign OEY330
Flight time 2h 43m
Altitude 33000
Route EGUKO T9 ARITO
Aircraft B733/M-SDE2E3FHIRW/S

Departure

Time 2026-05-06 07:14
Airport Soekarno-Hatta International Airport (WIII)

Arrival

Time 2026-05-06 09:57
Airport Sam Ratulangi International Airport (WAMM)
Time Latitude Longitude Altitude Speed Heading
2026-05-06 06:54 -6.12744 106.66153 46 ft 0 kts 68°
2026-05-06 07:01 -6.12747 106.66145 46 ft 2 kts 68°
2026-05-06 07:01 -6.12753 106.66131 46 ft 2 kts 68°
2026-05-06 07:02 -6.12758 106.66116 46 ft 2 kts 68°
2026-05-06 07:02 -6.12764 106.66103 46 ft 2 kts 68°
2026-05-06 07:02 -6.12770 106.66089 46 ft 1 kts 76°
2026-05-06 07:02 -6.12766 106.66075 46 ft 2 kts 135°
2026-05-06 07:03 -6.12758 106.66071 46 ft 1 kts 168°
2026-05-06 07:03 -6.12754 106.66069 46 ft 0 kts 160°
2026-05-06 07:05 -6.12759 106.66071 46 ft 1 kts 160°
2026-05-06 07:05 -6.12769 106.66074 46 ft 3 kts 158°
2026-05-06 07:05 -6.12800 106.66087 46 ft 6 kts 158°
2026-05-06 07:06 -6.12852 106.66108 46 ft 9 kts 158°
2026-05-06 07:06 -6.12923 106.66136 46 ft 12 kts 158°
2026-05-06 07:06 -6.13011 106.66170 46 ft 14 kts 159°
2026-05-06 07:06 -6.13116 106.66213 46 ft 15 kts 157°
2026-05-06 07:07 -6.13208 106.66250 46 ft 13 kts 159°
2026-05-06 07:07 -6.13271 106.66273 46 ft 9 kts 170°
2026-05-06 07:07 -6.13319 106.66231 46 ft 11 kts 248°
2026-05-06 07:07 -6.13350 106.66151 46 ft 13 kts 248°
2026-05-06 07:08 -6.13390 106.66050 46 ft 17 kts 248°
2026-05-06 07:08 -6.13438 106.65929 46 ft 20 kts 249°
2026-05-06 07:08 -6.13491 106.65795 46 ft 20 kts 249°
2026-05-06 07:08 -6.13544 106.65661 46 ft 20 kts 246°
2026-05-06 07:09 -6.13599 106.65524 46 ft 21 kts 248°
2026-05-06 07:09 -6.13657 106.65379 46 ft 22 kts 249°
2026-05-06 07:09 -6.13717 106.65229 46 ft 23 kts 248°
2026-05-06 07:09 -6.13779 106.65075 46 ft 24 kts 248°
2026-05-06 07:10 -6.13843 106.64912 46 ft 25 kts 249°
2026-05-06 07:10 -6.13908 106.64748 46 ft 25 kts 248°
2026-05-06 07:10 -6.13973 106.64587 46 ft 25 kts 248°
2026-05-06 07:10 -6.14035 106.64432 46 ft 17 kts 249°
2026-05-06 07:11 -6.14075 106.64339 46 ft 12 kts 237°
2026-05-06 07:11 -6.14129 106.64298 46 ft 8 kts 185°
2026-05-06 07:11 -6.14178 106.64317 46 ft 7 kts 139°
2026-05-06 07:11 -6.14210 106.64354 46 ft 6 kts 131°
2026-05-06 07:12 -6.14240 106.64382 46 ft 2 kts 105°
2026-05-06 07:12 -6.14237 106.64404 46 ft 4 kts 72°
2026-05-06 07:12 -6.14225 106.64436 46 ft 4 kts 68°
2026-05-06 07:12 -6.14200 106.64499 46 ft 26 kts 68°
2026-05-06 07:13 -6.14046 106.64885 46 ft 93 kts 68°
2026-05-06 07:13 -6.13726 106.65689 46 ft 153 kts 67°
2026-05-06 07:13 -6.13270 106.66846 192 ft 192 kts 68°
2026-05-06 07:13 -6.12771 106.68169 628 ft 212 kts 69°
2026-05-06 07:14 -6.12225 106.69584 1217 ft 221 kts 66°
2026-05-06 07:14 -6.11640 106.71024 1833 ft 228 kts 67°
2026-05-06 07:14 -6.11046 106.72495 2534 ft 231 kts 68°
2026-05-06 07:14 -6.10594 106.74043 3211 ft 234 kts 87°
2026-05-06 07:15 -6.10535 106.75695 3613 ft 251 kts 89°
2026-05-06 07:15 -6.10458 106.77419 4138 ft 261 kts 79°
2026-05-06 07:15 -6.09641 106.79037 4831 ft 267 kts 46°
2026-05-06 07:15 -6.08314 106.80368 5516 ft 269 kts 57°
2026-05-06 07:16 -6.07313 106.81950 6244 ft 270 kts 59°
2026-05-06 07:16 -6.06582 106.83150 6761 ft 272 kts 60°
2026-05-06 07:16 -6.05593 106.84793 7447 ft 275 kts 60°
2026-05-06 07:16 -6.04615 106.86433 8096 ft 279 kts 60°
2026-05-06 07:17 -6.03620 106.88113 8759 ft 282 kts 60°
2026-05-06 07:17 -6.02618 106.89811 9428 ft 284 kts 60°
2026-05-06 07:17 -6.01606 106.91528 10062 ft 288 kts 60°
2026-05-06 07:17 -6.00556 106.93315 10274 ft 309 kts 60°
2026-05-06 07:18 -5.99412 106.95263 10336 ft 332 kts 60°
2026-05-06 07:18 -5.98219 106.97293 10700 ft 344 kts 60°
2026-05-06 07:18 -5.96998 106.99372 11268 ft 349 kts 60°
2026-05-06 07:18 -5.95749 107.01498 11883 ft 352 kts 60°
2026-05-06 07:19 -5.94514 107.03603 12466 ft 355 kts 60°
2026-05-06 07:19 -5.93249 107.05756 13080 ft 358 kts 60°
2026-05-06 07:19 -5.91967 107.07940 13676 ft 360 kts 60°
2026-05-06 07:19 -5.90697 107.10103 14240 ft 363 kts 60°
2026-05-06 07:20 -5.89410 107.12292 14772 ft 366 kts 59°
2026-05-06 07:20 -5.88102 107.14501 15300 ft 369 kts 59°
2026-05-06 07:20 -5.86779 107.16742 15848 ft 371 kts 59°
2026-05-06 07:20 -5.85468 107.18969 16359 ft 374 kts 59°
2026-05-06 07:21 -5.84140 107.21227 16861 ft 376 kts 59°
2026-05-06 07:21 -5.82807 107.23495 17392 ft 378 kts 59°
2026-05-06 07:21 -5.81464 107.25779 17842 ft 382 kts 59°
2026-05-06 07:21 -5.80111 107.28081 18314 ft 385 kts 59°
2026-05-06 07:22 -5.78747 107.30402 18799 ft 387 kts 59°
2026-05-06 07:22 -5.77364 107.32755 19301 ft 389 kts 59°
2026-05-06 07:22 -5.75984 107.35102 19752 ft 391 kts 59°
2026-05-06 07:22 -5.74603 107.37452 20230 ft 393 kts 59°
2026-05-06 07:23 -5.73200 107.39838 20663 ft 396 kts 59°
2026-05-06 07:23 -5.71801 107.42217 21120 ft 397 kts 59°
2026-05-06 07:23 -5.70383 107.44623 21541 ft 400 kts 59°
2026-05-06 07:23 -5.68962 107.47030 21978 ft 401 kts 59°
2026-05-06 07:24 -5.67547 107.49432 22402 ft 403 kts 59°
2026-05-06 07:24 -5.66122 107.51851 22787 ft 405 kts 60°
2026-05-06 07:24 -5.64680 107.54301 23197 ft 407 kts 60°
2026-05-06 07:24 -5.63232 107.56762 23576 ft 409 kts 60°
2026-05-06 07:25 -5.61789 107.59212 23964 ft 410 kts 60°
2026-05-06 07:25 -5.60331 107.61690 24326 ft 413 kts 60°
2026-05-06 07:25 -5.58872 107.64168 24648 ft 415 kts 60°
2026-05-06 07:25 -5.57371 107.66721 24927 ft 420 kts 59°
2026-05-06 07:26 -5.55893 107.69244 25291 ft 421 kts 59°
2026-05-06 07:26 -5.54398 107.71787 25625 ft 423 kts 59°
2026-05-06 07:26 -5.52897 107.74338 25966 ft 425 kts 59°
2026-05-06 07:26 -5.51378 107.76917 26272 ft 428 kts 59°
2026-05-06 07:27 -5.49861 107.79493 26583 ft 430 kts 59°
2026-05-06 07:27 -5.48332 107.82089 26912 ft 431 kts 59°
2026-05-06 07:27 -5.46805 107.84679 27195 ft 434 kts 59°
2026-05-06 07:27 -5.45261 107.87299 27586 ft 434 kts 59°
2026-05-06 07:28 -5.43734 107.89889 28048 ft 432 kts 59°
2026-05-06 07:28 -5.42210 107.92474 28491 ft 430 kts 59°
2026-05-06 07:28 -5.39173 107.97624 29246 ft 429 kts 59°
2026-05-06 07:29 -5.37648 108.00210 29602 ft 429 kts 59°
2026-05-06 07:29 -5.36130 108.02785 29903 ft 430 kts 59°
2026-05-06 07:29 -5.34605 108.05370 30213 ft 430 kts 59°
2026-05-06 07:29 -5.33073 108.07966 30540 ft 429 kts 59°
2026-05-06 07:30 -5.31561 108.10530 30853 ft 429 kts 59°
2026-05-06 07:30 -5.30032 108.13121 31173 ft 428 kts 59°
2026-05-06 07:30 -5.28529 108.15668 31452 ft 428 kts 59°
2026-05-06 07:30 -5.26995 108.18266 31734 ft 428 kts 60°
2026-05-06 07:31 -5.25484 108.20827 32019 ft 428 kts 59°
2026-05-06 07:31 -5.23972 108.23387 32271 ft 428 kts 60°
2026-05-06 07:31 -5.22469 108.25932 32517 ft 427 kts 60°
2026-05-06 07:31 -5.20950 108.28506 32739 ft 428 kts 60°
2026-05-06 07:32 -5.17881 108.33702 32770 ft 437 kts 60°
2026-05-06 07:32 -5.14750 108.39002 32761 ft 444 kts 60°
2026-05-06 07:33 -5.11582 108.44363 32780 ft 450 kts 60°
2026-05-06 07:33 -5.08396 108.49754 32805 ft 452 kts 60°
2026-05-06 07:34 -5.05179 108.55196 32810 ft 452 kts 60°
2026-05-06 07:34 -5.01980 108.60605 32807 ft 452 kts 60°
2026-05-06 07:35 -4.98755 108.66058 32782 ft 453 kts 60°
2026-05-06 07:35 -4.95566 108.71468 32807 ft 452 kts 60°
2026-05-06 07:36 -4.92365 108.76881 32808 ft 452 kts 60°
2026-05-06 07:36 -4.89156 108.82298 32787 ft 452 kts 59°
2026-05-06 07:37 -4.85918 108.87734 32807 ft 452 kts 60°
2026-05-06 07:37 -4.82712 108.93141 32807 ft 452 kts 60°
2026-05-06 07:38 -4.79516 108.98537 32807 ft 452 kts 60°
2026-05-06 07:38 -4.76301 109.03964 32807 ft 452 kts 60°
2026-05-06 07:39 -4.73092 109.09379 32807 ft 451 kts 60°
2026-05-06 07:39 -4.69893 109.14777 32806 ft 451 kts 60°
2026-05-06 07:40 -4.66690 109.20178 32807 ft 451 kts 60°
2026-05-06 07:40 -4.63486 109.25581 32807 ft 451 kts 60°
2026-05-06 07:41 -4.60290 109.30969 32808 ft 450 kts 60°
2026-05-06 07:41 -4.57076 109.36387 32806 ft 450 kts 60°
2026-05-06 07:42 -4.53874 109.41783 32807 ft 450 kts 60°
2026-05-06 07:42 -4.50684 109.47159 32808 ft 449 kts 60°
2026-05-06 07:43 -4.47508 109.52509 32806 ft 449 kts 60°
2026-05-06 07:43 -4.44294 109.57922 32809 ft 448 kts 60°
2026-05-06 07:44 -4.41124 109.63259 32806 ft 448 kts 60°
2026-05-06 07:44 -4.37935 109.68642 32794 ft 447 kts 60°
2026-05-06 07:45 -4.34757 109.74001 32808 ft 447 kts 60°
2026-05-06 07:45 -4.31570 109.79365 32807 ft 447 kts 60°
2026-05-06 07:46 -4.28388 109.84720 32807 ft 447 kts 60°
2026-05-06 07:46 -4.25197 109.90087 32807 ft 447 kts 60°
2026-05-06 07:47 -4.22031 109.95411 32806 ft 446 kts 60°
2026-05-06 07:47 -4.18855 110.00751 32806 ft 446 kts 60°
2026-05-06 07:48 -4.15670 110.06105 32807 ft 446 kts 60°
2026-05-06 07:48 -4.12488 110.11453 32807 ft 446 kts 60°
2026-05-06 07:49 -4.09309 110.16795 32807 ft 446 kts 60°
2026-05-06 07:49 -4.06125 110.22144 32807 ft 446 kts 60°
2026-05-06 07:50 -4.02952 110.27472 32807 ft 446 kts 60°
2026-05-06 07:50 -3.99764 110.32826 32807 ft 446 kts 60°
2026-05-06 07:51 -3.96605 110.38141 32807 ft 446 kts 62°
2026-05-06 07:51 -3.93856 110.43715 32806 ft 445 kts 65°
2026-05-06 07:52 -3.91186 110.49338 32807 ft 445 kts 65°
2026-05-06 07:52 -3.88508 110.54915 32793 ft 446 kts 65°
2026-05-06 07:53 -3.85815 110.60510 32808 ft 446 kts 65°
2026-05-06 07:53 -3.83130 110.66114 32782 ft 447 kts 65°
2026-05-06 07:54 -3.80464 110.71702 32808 ft 446 kts 65°
2026-05-06 07:54 -3.77779 110.77311 32808 ft 446 kts 65°
2026-05-06 07:55 -3.75112 110.82877 32807 ft 446 kts 65°
2026-05-06 07:55 -3.72424 110.88484 32806 ft 445 kts 65°
2026-05-06 07:56 -3.69749 110.94065 32807 ft 445 kts 65°
2026-05-06 07:56 -3.67058 110.99680 32807 ft 445 kts 65°
2026-05-06 07:57 -3.64377 111.05270 32802 ft 445 kts 65°
2026-05-06 07:57 -3.61694 111.10865 32798 ft 445 kts 65°
2026-05-06 07:58 -3.59030 111.16419 32793 ft 445 kts 65°
2026-05-06 07:58 -3.56328 111.22050 32789 ft 445 kts 65°
2026-05-06 07:59 -3.53662 111.27605 32784 ft 445 kts 65°
2026-05-06 07:59 -3.50979 111.33194 32782 ft 444 kts 65°
2026-05-06 08:00 -3.48312 111.38751 32778 ft 444 kts 65°
2026-05-06 08:00 -3.45633 111.44331 32779 ft 444 kts 65°
2026-05-06 08:01 -3.42963 111.49891 32780 ft 444 kts 65°
2026-05-06 08:01 -3.40286 111.55463 32780 ft 444 kts 65°
2026-05-06 08:02 -3.37610 111.61034 32780 ft 444 kts 65°
2026-05-06 08:02 -3.34952 111.66569 32743 ft 445 kts 65°
2026-05-06 08:03 -3.32281 111.72146 32780 ft 444 kts 65°
2026-05-06 08:03 -3.29601 111.77725 32778 ft 445 kts 64°
2026-05-06 08:04 -3.26916 111.83312 32781 ft 445 kts 64°
2026-05-06 08:04 -3.24244 111.88869 32780 ft 445 kts 64°
2026-05-06 08:05 -3.21566 111.94437 32780 ft 445 kts 64°
2026-05-06 08:05 -3.18882 112.00018 32780 ft 445 kts 64°
2026-05-06 08:06 -3.16198 112.05596 32780 ft 443 kts 65°
2026-05-06 08:06 -3.13524 112.11154 32778 ft 444 kts 65°
2026-05-06 08:07 -3.10857 112.16697 32780 ft 444 kts 64°
2026-05-06 08:07 -3.08185 112.22250 32780 ft 444 kts 65°
2026-05-06 08:08 -3.05506 112.27814 32780 ft 444 kts 64°
2026-05-06 08:08 -3.02980 112.33443 32754 ft 446 kts 69°
2026-05-06 08:09 -3.00702 112.39277 32738 ft 449 kts 69°
2026-05-06 08:09 -2.98407 112.45084 32754 ft 451 kts 69°
2026-05-06 08:10 -2.96082 112.50969 32764 ft 453 kts 69°
2026-05-06 08:10 -2.93776 112.56804 32774 ft 453 kts 69°
2026-05-06 08:11 -2.91450 112.62691 32773 ft 454 kts 69°
2026-05-06 08:11 -2.89123 112.68574 32741 ft 454 kts 69°
2026-05-06 08:12 -2.86793 112.74438 32777 ft 455 kts 69°
2026-05-06 08:12 -2.84477 112.80289 32779 ft 455 kts 69°
2026-05-06 08:13 -2.82137 112.86208 32780 ft 455 kts 69°
2026-05-06 08:13 -2.79813 112.92083 32780 ft 455 kts 69°
2026-05-06 08:14 -2.77469 112.98007 32780 ft 455 kts 69°
2026-05-06 08:14 -2.75143 113.03886 32780 ft 455 kts 69°
2026-05-06 08:15 -2.72811 113.09779 32780 ft 455 kts 69°
2026-05-06 08:15 -2.70491 113.15642 32780 ft 455 kts 69°
2026-05-06 08:16 -2.68155 113.21542 32780 ft 455 kts 69°
2026-05-06 08:16 -2.65827 113.27425 32780 ft 455 kts 69°
2026-05-06 08:17 -2.63496 113.33309 32780 ft 455 kts 69°
2026-05-06 08:17 -2.61180 113.39159 32780 ft 455 kts 69°
2026-05-06 08:18 -2.58495 113.44876 32778 ft 455 kts 63°
2026-05-06 08:18 -2.55610 113.50532 32780 ft 455 kts 63°
2026-05-06 08:19 -2.52758 113.56183 32780 ft 455 kts 63°
2026-05-06 08:19 -2.49924 113.61807 32780 ft 455 kts 63°
2026-05-06 08:20 -2.47082 113.67454 32746 ft 455 kts 63°
2026-05-06 08:20 -2.44232 113.73124 32783 ft 454 kts 63°
2026-05-06 08:21 -2.41411 113.78721 32779 ft 454 kts 63°
2026-05-06 08:21 -2.38561 113.84375 32780 ft 454 kts 63°
2026-05-06 08:22 -2.35724 113.90001 32780 ft 454 kts 63°
2026-05-06 08:22 -2.32886 113.95629 32780 ft 454 kts 63°
2026-05-06 08:23 -2.30041 114.01269 32780 ft 454 kts 63°
2026-05-06 08:23 -2.27202 114.06898 32780 ft 454 kts 63°
2026-05-06 08:24 -2.24358 114.12534 32780 ft 454 kts 63°
2026-05-06 08:24 -2.21518 114.18165 32780 ft 454 kts 63°
2026-05-06 08:25 -2.18679 114.23790 32780 ft 454 kts 63°
2026-05-06 08:25 -2.15845 114.29407 32780 ft 454 kts 63°
2026-05-06 08:26 -2.12998 114.35047 32780 ft 454 kts 63°
2026-05-06 08:26 -2.10152 114.40687 32780 ft 454 kts 63°
2026-05-06 08:27 -2.07315 114.46307 32780 ft 454 kts 63°
2026-05-06 08:27 -2.04486 114.51909 32780 ft 454 kts 63°
2026-05-06 08:28 -2.01648 114.57531 32780 ft 454 kts 63°
2026-05-06 08:28 -1.98793 114.63184 32777 ft 454 kts 63°
2026-05-06 08:29 -1.95960 114.68806 32764 ft 455 kts 63°
2026-05-06 08:29 -1.93106 114.74467 32781 ft 455 kts 63°
2026-05-06 08:30 -1.90249 114.80124 32780 ft 455 kts 63°
2026-05-06 08:30 -1.87398 114.85732 32776 ft 455 kts 63°
2026-05-06 08:31 -1.84537 114.91380 32780 ft 455 kts 63°
2026-05-06 08:31 -1.81693 114.97008 32782 ft 455 kts 64°
2026-05-06 08:32 -1.78840 115.02653 32782 ft 454 kts 64°
2026-05-06 08:32 -1.76010 115.08253 32789 ft 454 kts 64°
2026-05-06 08:33 -1.73154 115.13905 32798 ft 454 kts 64°
2026-05-06 08:33 -1.70303 115.19544 32804 ft 454 kts 64°
2026-05-06 08:34 -1.66446 115.28145 32807 ft 454 kts 68°
2026-05-06 08:35 -1.64059 115.34019 32807 ft 454 kts 68°
2026-05-06 08:35 -1.61668 115.39847 32807 ft 454 kts 68°
2026-05-06 08:36 -1.59281 115.45662 32807 ft 454 kts 68°
2026-05-06 08:36 -1.56879 115.51509 32807 ft 454 kts 68°
2026-05-06 08:37 -1.54489 115.57329 32807 ft 454 kts 68°
2026-05-06 08:37 -1.52081 115.63191 32807 ft 454 kts 68°
2026-05-06 08:38 -1.49690 115.69026 32792 ft 454 kts 68°
2026-05-06 08:38 -1.47306 115.74840 32808 ft 454 kts 68°
2026-05-06 08:39 -1.44897 115.80705 32808 ft 454 kts 68°
2026-05-06 08:39 -1.42509 115.86516 32807 ft 454 kts 68°
2026-05-06 08:40 -1.40099 115.92380 32807 ft 454 kts 68°
2026-05-06 08:40 -1.37708 115.98199 32807 ft 455 kts 68°
2026-05-06 08:41 -1.35309 116.04037 32806 ft 455 kts 68°
2026-05-06 08:41 -1.32902 116.09892 32807 ft 455 kts 68°
2026-05-06 08:42 -1.30491 116.15758 32807 ft 456 kts 68°
2026-05-06 08:42 -1.28086 116.21609 32809 ft 455 kts 68°
2026-05-06 08:43 -1.25697 116.27419 32806 ft 455 kts 68°
2026-05-06 08:43 -1.23297 116.33257 32807 ft 455 kts 68°
2026-05-06 08:44 -1.20895 116.39100 32807 ft 455 kts 68°
2026-05-06 08:44 -1.18484 116.44963 32806 ft 455 kts 68°
2026-05-06 08:45 -1.16078 116.50813 32807 ft 455 kts 68°
2026-05-06 08:45 -1.13680 116.56644 32807 ft 454 kts 68°
2026-05-06 08:46 -1.11280 116.62479 32806 ft 454 kts 68°
2026-05-06 08:46 -1.08890 116.68301 32786 ft 454 kts 68°
2026-05-06 08:47 -1.06487 116.74155 32808 ft 455 kts 68°
2026-05-06 08:47 -1.04089 116.79986 32808 ft 455 kts 68°
2026-05-06 08:48 -1.01702 116.85789 32807 ft 455 kts 68°
2026-05-06 08:48 -0.99299 116.91630 32807 ft 455 kts 68°
2026-05-06 08:49 -0.96895 116.97472 32807 ft 455 kts 68°
2026-05-06 08:49 -0.94489 117.03339 32807 ft 455 kts 68°
2026-05-06 08:50 -0.92080 117.09208 32807 ft 455 kts 68°
2026-05-06 08:50 -0.89678 117.15054 32800 ft 455 kts 68°
2026-05-06 08:51 -0.87258 117.20892 32807 ft 455 kts 68°
2026-05-06 08:51 -0.84858 117.26723 32807 ft 455 kts 68°
2026-05-06 08:52 -0.82465 117.32543 32807 ft 455 kts 68°
2026-05-06 08:52 -0.80047 117.38429 32807 ft 455 kts 69°
2026-05-06 08:53 -0.77646 117.44272 32807 ft 455 kts 69°
2026-05-06 08:53 -0.75251 117.50098 32807 ft 455 kts 69°
2026-05-06 08:54 -0.72849 117.55941 32807 ft 455 kts 69°
2026-05-06 08:54 -0.70437 117.61812 32807 ft 455 kts 69°
2026-05-06 08:55 -0.68031 117.67672 32779 ft 454 kts 69°
2026-05-06 08:55 -0.65641 117.73501 32807 ft 454 kts 69°
2026-05-06 08:56 -0.63239 117.79346 32807 ft 455 kts 69°
2026-05-06 08:56 -0.60838 117.85188 32807 ft 454 kts 69°
2026-05-06 08:57 -0.58447 117.91003 32807 ft 454 kts 69°
2026-05-06 08:57 -0.56050 117.96834 32807 ft 454 kts 69°
2026-05-06 08:58 -0.53641 118.02694 32808 ft 454 kts 69°
2026-05-06 08:58 -0.51252 118.08504 32804 ft 454 kts 69°
2026-05-06 08:59 -0.48840 118.14369 32808 ft 455 kts 69°
2026-05-06 08:59 -0.46440 118.20208 32807 ft 455 kts 69°
2026-05-06 09:00 -0.44037 118.26052 32807 ft 455 kts 69°
2026-05-06 09:00 -0.41636 118.31890 32807 ft 455 kts 69°
2026-05-06 09:01 -0.39237 118.37726 32807 ft 455 kts 69°
2026-05-06 09:01 -0.36832 118.43574 32807 ft 455 kts 69°
2026-05-06 09:02 -0.34617 118.49487 32807 ft 455 kts 71°
2026-05-06 09:02 -0.32625 118.54929 32809 ft 454 kts 71°
2026-05-06 09:03 -0.30459 118.60810 32806 ft 454 kts 71°
2026-05-06 09:03 -0.28276 118.66737 32765 ft 455 kts 71°
2026-05-06 09:04 -0.26101 118.72654 32808 ft 454 kts 71°
2026-05-06 09:04 -0.23922 118.78568 32808 ft 454 kts 71°
2026-05-06 09:05 -0.21734 118.84504 32807 ft 454 kts 71°
2026-05-06 09:05 -0.19549 118.90431 32809 ft 453 kts 71°
2026-05-06 09:06 -0.17375 118.96329 32805 ft 453 kts 71°
2026-05-06 09:06 -0.15197 119.02238 32806 ft 454 kts 71°
2026-05-06 09:07 -0.13015 119.08158 32807 ft 454 kts 71°
2026-05-06 09:07 -0.10837 119.14064 32808 ft 453 kts 71°
2026-05-06 09:08 -0.08689 119.19892 32806 ft 453 kts 71°
2026-05-06 09:08 -0.06515 119.25790 32807 ft 453 kts 71°
2026-05-06 09:09 -0.04338 119.31696 32808 ft 453 kts 71°
2026-05-06 09:09 -0.02168 119.37582 32806 ft 453 kts 71°
2026-05-06 09:10 0.00008 119.43484 32806 ft 453 kts 71°
2026-05-06 09:10 0.02191 119.49406 32832 ft 454 kts 71°
2026-05-06 09:11 0.04039 119.55425 32835 ft 452 kts 76°
2026-05-06 09:11 0.05664 119.61473 32834 ft 452 kts 76°
2026-05-06 09:12 0.07316 119.67522 32796 ft 453 kts 76°
2026-05-06 09:12 0.08988 119.73649 32821 ft 456 kts 76°
2026-05-06 09:13 0.10669 119.79755 32823 ft 458 kts 76°
2026-05-06 09:13 0.12373 119.85898 32836 ft 458 kts 76°
2026-05-06 09:14 0.14053 119.92007 32834 ft 457 kts 76°
2026-05-06 09:14 0.15735 119.98132 32834 ft 458 kts 76°
2026-05-06 09:15 0.17414 120.04247 32834 ft 458 kts 76°
2026-05-06 09:15 0.19105 120.10409 32834 ft 458 kts 76°
2026-05-06 09:16 0.20787 120.16534 32834 ft 458 kts 76°
2026-05-06 09:16 0.22471 120.22669 32834 ft 458 kts 76°
2026-05-06 09:17 0.24146 120.28770 32832 ft 458 kts 76°
2026-05-06 09:17 0.25831 120.34907 32835 ft 458 kts 76°
2026-05-06 09:18 0.27520 120.41059 32834 ft 458 kts 76°
2026-05-06 09:18 0.29207 120.47206 32834 ft 458 kts 76°
2026-05-06 09:19 0.30891 120.53342 32833 ft 458 kts 76°
2026-05-06 09:19 0.32568 120.59451 32834 ft 459 kts 76°
2026-05-06 09:20 0.34258 120.65606 32827 ft 459 kts 76°
2026-05-06 09:20 0.35935 120.71736 32834 ft 458 kts 76°
2026-05-06 09:21 0.37631 120.77919 32833 ft 459 kts 76°
2026-05-06 09:21 0.39312 120.84046 32835 ft 459 kts 76°
2026-05-06 09:22 0.40999 120.90191 32834 ft 459 kts 76°
2026-05-06 09:22 0.42689 120.96349 32833 ft 459 kts 76°
2026-05-06 09:23 0.44378 121.02502 32836 ft 459 kts 76°
2026-05-06 09:23 0.46055 121.08614 32846 ft 459 kts 76°
2026-05-06 09:24 0.47750 121.14790 32853 ft 459 kts 75°
2026-05-06 09:24 0.49431 121.20918 32859 ft 459 kts 75°
2026-05-06 09:25 0.51127 121.27099 32861 ft 459 kts 75°
2026-05-06 09:25 0.52810 121.33231 32861 ft 459 kts 75°
2026-05-06 09:26 0.54490 121.39355 32859 ft 459 kts 75°
2026-05-06 09:26 0.56189 121.45547 32862 ft 460 kts 75°
2026-05-06 09:27 0.57869 121.51669 32861 ft 460 kts 75°
2026-05-06 09:27 0.59562 121.57840 32861 ft 459 kts 75°
2026-05-06 09:28 0.61253 121.64006 32861 ft 459 kts 75°
2026-05-06 09:28 0.62933 121.70145 32851 ft 459 kts 75°
2026-05-06 09:29 0.64625 121.76319 32862 ft 460 kts 75°
2026-05-06 09:29 0.66307 121.82454 32861 ft 459 kts 75°
2026-05-06 09:30 0.67999 121.88622 32861 ft 459 kts 75°
2026-05-06 09:30 0.69699 121.94820 32861 ft 459 kts 75°
2026-05-06 09:31 0.71389 122.00983 32868 ft 459 kts 75°
2026-05-06 09:31 0.73091 122.07189 32873 ft 459 kts 75°
2026-05-06 09:32 0.74772 122.13320 32884 ft 459 kts 75°
2026-05-06 09:32 0.80174 122.33021 32907 ft 458 kts 75°
2026-05-06 09:33 0.90301 122.69985 32721 ft 460 kts 75°
2026-05-06 09:33 0.95331 122.88366 33057 ft 458 kts 75°
2026-05-06 09:33 1.00411 123.06860 32844 ft 458 kts 75°
2026-05-06 09:34 1.06902 123.30598 32817 ft 457 kts 77°
2026-05-06 09:34 1.07309 123.33746 32402 ft 457 kts 87°
2026-05-06 09:34 1.07436 123.36873 31723 ft 446 kts 86°
2026-05-06 09:34 1.07667 123.39917 31679 ft 428 kts 84°
2026-05-06 09:35 1.07983 123.42844 31332 ft 420 kts 83°
2026-05-06 09:35 1.08335 123.45714 30654 ft 419 kts 83°
2026-05-06 09:35 1.08704 123.48596 30015 ft 418 kts 82°
2026-05-06 09:35 1.09078 123.51485 29440 ft 415 kts 82°
2026-05-06 09:36 1.09444 123.54302 28810 ft 414 kts 82°
2026-05-06 09:36 1.09815 123.57162 28151 ft 413 kts 82°
2026-05-06 09:36 1.10190 123.60030 27397 ft 414 kts 82°
2026-05-06 09:36 1.10571 123.62872 26761 ft 412 kts 82°
2026-05-06 09:37 1.10943 123.65687 26183 ft 409 kts 82°
2026-05-06 09:37 1.11309 123.68494 25579 ft 407 kts 83°
2026-05-06 09:37 1.11671 123.71285 25059 ft 402 kts 83°
2026-05-06 09:37 1.12031 123.74065 24520 ft 398 kts 83°
2026-05-06 09:38 1.12385 123.76794 23972 ft 395 kts 83°
2026-05-06 09:38 1.12737 123.79510 23425 ft 392 kts 83°
2026-05-06 09:38 1.13085 123.82196 22882 ft 389 kts 83°
2026-05-06 09:38 1.13434 123.84886 22313 ft 387 kts 83°
2026-05-06 09:39 1.13781 123.87557 21784 ft 383 kts 83°
2026-05-06 09:39 1.14119 123.90169 21265 ft 380 kts 83°
2026-05-06 09:39 1.14461 123.92802 20705 ft 378 kts 83°
2026-05-06 09:39 1.14797 123.95402 20187 ft 375 kts 82°
2026-05-06 09:40 1.15132 123.97982 19678 ft 372 kts 82°
2026-05-06 09:40 1.15461 124.00518 19175 ft 370 kts 82°
2026-05-06 09:40 1.16117 124.05581 18131 ft 365 kts 82°
2026-05-06 09:41 1.16442 124.08089 17637 ft 362 kts 82°
2026-05-06 09:41 1.16762 124.10564 17118 ft 361 kts 82°
2026-05-06 09:41 1.17087 124.13067 16604 ft 358 kts 82°
2026-05-06 09:41 1.17406 124.15527 16208 ft 352 kts 82°
2026-05-06 09:42 1.17714 124.17910 16173 ft 336 kts 82°
2026-05-06 09:42 1.18008 124.20176 16087 ft 323 kts 82°
2026-05-06 09:42 1.18293 124.22378 15781 ft 318 kts 82°
2026-05-06 09:42 1.18577 124.24569 15345 ft 317 kts 82°
2026-05-06 09:43 1.18863 124.26773 14917 ft 315 kts 82°
2026-05-06 09:43 1.19143 124.28931 14506 ft 314 kts 82°
2026-05-06 09:43 1.19421 124.31083 14091 ft 313 kts 82°
2026-05-06 09:43 1.19704 124.33263 13670 ft 312 kts 82°
2026-05-06 09:44 1.19980 124.35397 13259 ft 310 kts 82°
2026-05-06 09:44 1.20258 124.37543 12851 ft 309 kts 82°
2026-05-06 09:44 1.20531 124.39655 12454 ft 308 kts 82°
2026-05-06 09:44 1.20807 124.41785 12042 ft 307 kts 82°
2026-05-06 09:45 1.21081 124.43900 11647 ft 305 kts 82°
2026-05-06 09:45 1.21354 124.46013 11260 ft 304 kts 82°
2026-05-06 09:45 1.21622 124.48083 10879 ft 302 kts 82°
2026-05-06 09:45 1.21892 124.50166 10628 ft 295 kts 82°
2026-05-06 09:46 1.22148 124.52144 10641 ft 285 kts 82°
2026-05-06 09:46 1.22414 124.54198 10653 ft 311 kts 82°
2026-05-06 09:46 1.22761 124.56469 10415 ft 343 kts 78°
2026-05-06 09:46 1.23245 124.58786 9971 ft 339 kts 77°
2026-05-06 09:47 1.23721 124.61031 9816 ft 323 kts 77°
2026-05-06 09:47 1.24173 124.63175 9835 ft 303 kts 77°
2026-05-06 09:47 1.24598 124.65196 9860 ft 286 kts 77°
2026-05-06 09:47 1.24995 124.67097 9715 ft 275 kts 77°
2026-05-06 09:48 1.25381 124.68947 9530 ft 266 kts 77°
2026-05-06 09:48 1.25754 124.70726 9282 ft 262 kts 77°
2026-05-06 09:48 1.26127 124.72510 9030 ft 260 kts 77°
2026-05-06 09:48 1.26496 124.74273 8669 ft 262 kts 77°
2026-05-06 09:49 1.26667 124.76118 8183 ft 267 kts 88°
2026-05-06 09:49 1.26692 124.77989 7688 ft 271 kts 89°
2026-05-06 09:49 1.26718 124.79878 7193 ft 274 kts 89°
2026-05-06 09:49 1.26746 124.81776 6698 ft 274 kts 89°
2026-05-06 09:50 1.26776 124.83671 6277 ft 271 kts 88°
2026-05-06 09:50 1.26805 124.85521 6031 ft 263 kts 88°
2026-05-06 09:50 1.26835 124.87349 5571 ft 264 kts 88°
2026-05-06 09:50 1.26866 124.89163 5317 ft 254 kts 88°
2026-05-06 09:51 1.27258 124.90818 5223 ft 237 kts 56°
2026-05-06 09:51 1.28480 124.91836 4994 ft 226 kts 17°
2026-05-06 09:51 1.30018 124.91976 4653 ft 222 kts 358°
2026-05-06 09:51 1.31556 124.91943 4318 ft 221 kts 358°
2026-05-06 09:52 1.33094 124.91930 4034 ft 218 kts 360°
2026-05-06 09:52 1.34583 124.91950 3804 ft 215 kts
2026-05-06 09:52 1.36052 124.91993 3694 ft 205 kts
2026-05-06 09:52 1.37450 124.92042 3649 ft 192 kts
2026-05-06 09:53 1.38783 124.92091 3412 ft 191 kts
2026-05-06 09:53 1.40104 124.92139 3150 ft 191 kts
2026-05-06 09:53 1.41406 124.92184 2959 ft 186 kts
2026-05-06 09:53 1.42708 124.92229 2698 ft 186 kts
2026-05-06 09:54 1.43998 124.92270 2404 ft 183 kts
2026-05-06 09:54 1.45247 124.92311 2126 ft 179 kts
2026-05-06 09:54 1.46473 124.92353 1864 ft 174 kts
2026-05-06 09:54 1.47675 124.92405 1601 ft 170 kts
2026-05-06 09:55 1.48837 124.92440 1361 ft 164 kts
2026-05-06 09:55 1.49959 124.92470 1135 ft 155 kts
2026-05-06 09:55 1.51040 124.92498 919 ft 153 kts
2026-05-06 09:55 1.52123 124.92528 669 ft 155 kts
2026-05-06 09:56 1.53193 124.92569 424 ft 156 kts
2026-05-06 09:56 1.53855 124.92599 304 ft 155 kts
2026-05-06 09:56 1.54909 124.92631 271 ft 142 kts
2026-05-06 09:56 1.55709 124.92668 271 ft 89 kts 358°
2026-05-06 09:57 1.56154 124.92677 271 ft 53 kts
2026-05-06 09:57 1.56140 124.92677 271 ft 7 kts 180°
2026-05-06 09:57 1.56112 124.92666 271 ft 2 kts 250°
2026-05-06 09:58 1.56113 124.92639 271 ft 5 kts 277°
2026-05-06 09:58 1.56118 124.92576 271 ft 11 kts 271°
2026-05-06 09:58 1.56077 124.92509 271 ft 13 kts 192°
2026-05-06 09:58 1.55965 124.92506 271 ft 17 kts 182°
2026-05-06 09:59 1.55841 124.92503 271 ft 18 kts 182°
2026-05-06 09:59 1.55711 124.92498 271 ft 18 kts 181°
2026-05-06 09:59 1.55579 124.92494 271 ft 19 kts 182°
2026-05-06 09:59 1.55443 124.92490 271 ft 19 kts 181°
2026-05-06 10:00 1.55299 124.92485 271 ft 21 kts 182°
2026-05-06 10:00 1.55142 124.92480 271 ft 23 kts 182°
2026-05-06 10:00 1.54981 124.92474 271 ft 23 kts 181°
2026-05-06 10:00 1.54818 124.92469 271 ft 23 kts 182°
2026-05-06 10:01 1.54653 124.92463 271 ft 21 kts 182°
2026-05-06 10:01 1.54510 124.92458 271 ft 14 kts 181°
2026-05-06 10:01 1.54418 124.92451 271 ft 12 kts 202°
2026-05-06 10:01 1.54364 124.92426 271 ft 3 kts 189°
2026-05-06 10:02 1.54337 124.92425 271 ft 4 kts 183°
2026-05-06 10:02 1.54293 124.92423 271 ft 7 kts 181°
2026-05-06 10:02 1.54230 124.92421 271 ft 9 kts 181°
2026-05-06 10:02 1.54157 124.92419 271 ft 10 kts 183°
2026-05-06 10:03 1.54097 124.92416 271 ft 5 kts 181°
2026-05-06 10:03 1.54057 124.92415 271 ft 5 kts 181°
2026-05-06 10:03 1.54044 124.92415 271 ft 2 kts 182°
2026-05-06 10:03 1.54035 124.92412 271 ft 1 kts 215°
2026-05-06 10:04 1.54031 124.92402 271 ft 2 kts 259°
2026-05-06 10:04 1.54030 124.92377 271 ft 4 kts 270°
2026-05-06 10:04 1.54031 124.92345 271 ft 2 kts 272°
2026-05-06 10:04 1.54031 124.92336 271 ft 0 kts 272°